[Iaude] MPEC U108: 2013 SB101 [a=43.45,e=0.11,i=2.1,H=8.2]

mpec at mpcdb1.cfa.harvard.edu mpec at mpcdb1.cfa.harvard.edu
Thu Oct 19 18:51:16 EDT 2017


M.P.E.C. 2017-U108                               Issued 2017 Oct. 19, 22:46 UT
 
     The Minor Planet Electronic Circulars contain information on unusual
         minor planets and routine data on comets.  They are published
    on behalf of Division F of the International Astronomical Union by the
          Minor Planet Center, Smithsonian Astrophysical Observatory,
                          Cambridge, MA 02138, U.S.A.

             Prepared using the Tamkin Foundation Computer Network

                              MPC at CFA.HARVARD.EDU
            URL http://www.minorplanetcenter.net/    ISSN 1523-6714


                                  2013 SB101
 
Observations:
     K13SA1B @C2013 08 05.50093 00 45 27.660+02 39 12.09         24.0 rqEU108568
     K13SA1B @C2013 08 05.55416 00 45 27.548+02 39 11.42         23.9 rqEU108568
     K13SA1B @C2013 08 31.56492 00 44 11.807+02 30 02.31         23.8 rqEU108568
     K13SA1B @C2013 09 01.45046 00 44 08.466+02 29 39.01         24.6 rqEU108568
     K13SA1B @C2013 09 01.48940 00 44 08.319+02 29 38.11         24.2 rqEU108568
     K13SA1B @C2013 09 01.49828 00 44 08.273+02 29 37.83         24.2 rqEU108568
     K13SA1B @C2013 09 05.42994 00 43 52.849+02 27 52.40         24.6 rqEU108568
     K13SA1B @C2013 09 05.46880 00 43 52.716+02 27 51.41         24.0 rqEU108568
     K13SA1B*@C2013 09 29.36094 00 42 06.300+02 16 07.81         24.3 rqEU108568
     K13SA1B @C2013 09 29.39977 00 42 06.102+02 16 06.64         24.1 rqEU108568
     K13SA1B @C2013 09 29.44359 00 42 05.896+02 16 05.34         24.1 rqEU108568
     K13SA1B @C2013 09 29.44819 00 42 05.884+02 16 05.19         24.0 rqEU108568
     K13SA1B @C2013 09 29.45297 00 42 05.846+02 16 05.35         24.0 rqEU108568
     K13SA1B @C2013 09 29.45785 00 42 05.821+02 16 05.06         24.0 rqEU108568
     K13SA1B @C2013 09 29.46414 00 42 05.796+02 16 04.77         23.2 rqEU108568
     K13SA1B @C2013 09 29.46913 00 42 05.764+02 16 04.97         23.9 rqEU108568
     K13SA1B @C2013 09 29.50184 00 42 05.602+02 16 03.59         23.8 rqEU108568
     K13SA1B @C2013 10 05.35958 00 41 37.815+02 13 05.58         23.9 rqEU108568
     K13SA1B @C2013 10 06.43244 00 41 32.695+02 12 32.94         24.1 rqEU108568
     K13SA1B @C2013 10 07.35479 00 41 28.341+02 12 05.43         23.7 rqEU108568
     K13SA1B @C2013 10 09.49249 00 41 18.179+02 11 01.27         23.9 rqEU108568
     K13SA1B @C2013 11 27.29243 00 38 11.285+01 52 31.59         24.3 rqEU108568
     K13SA1B @C2013 11 27.33867 00 38 11.182+01 52 30.90         24.1 rqEU108568
     K13SA1B @C2013 12 05.24094 00 37 55.552+01 51 15.05         23.9 rqEU108568
     K13SA1B @C2014 07 23.57540 00 51 32.042+03 17 45.92               qEU108568
     K13SA1B @C2014 07 27.55602 00 51 28.776+03 17 11.71         23.6 rqEU108568
     K13SA1B @C2014 08 24.49767 00 50 28.083+03 09 25.93         24.1 rqEU108568
     K13SA1B @C2014 08 28.46980 00 50 14.712+03 07 52.22         23.9 rqEU108568
     K13SA1B @C2014 10 23.32666 00 46 06.816+02 41 06.20         23.6 rqEU108568
     K13SA1B @C2014 10 27.29329 00 45 49.189+02 39 19.17         23.9 rqEU108568
     K13SA1B @C2014 11 24.27113 00 44 07.366+02 29 30.51         24.4 rqEU108568
     K13SA1B @C2014 11 25.29743 00 44 04.602+02 29 16.08         24.1 rqEU108568
     K13SA1B @C2015 01 17.25388 00 43 53.491+02 31 00.07         24.3 rqEU108568
     K13SA1B @C2015 08 20.51481 00 56 31.796+03 47 13.66         24.1 rqEU108568
     K13SA1B @C2015 10 12.27435 00 52 52.158+03 23 05.30         23.7 rqEU108568
     K13SA1B @C2015 10 12.35600 00 52 51.764+03 23 02.84         24.0 rqEU108568
     K13SA1B @C2015 12 07.39898 00 49 26.646+03 03 16.29         24.3 wqEU108568
     K13SA1B @C2015 12 31.22795 00 49 11.243+03 02 59.48         24.6 wqEU108568
     K13SA1B @C2017 07 24.58173 01 08 55.790+05 04 51.51         24.2 wqEU108568
 
Observer details:
568 Mauna Kea.  Observers M. T. Bannister, J. J. Kavelaars, B. J. Gladman,
    J.-M. Petit, T. Burdullis.  Measurers S. D. J. Gwyn, Y.-T. Chen,
    M. Alexandersen, M. Schwamb.  3.6-m Canada-France-Hawaii Telescope + CCD.
 
Orbital elements:
2013 SB101
Epoch 2017 Sept. 4.0 TT = JDT 2458000.5                 MPC
M 341.56008              (2000.0)            P               Q
n   0.00344128     Peri.  288.17431     +0.76942811     -0.63785288
a  43.4499333      Node   111.47161     +0.59880038     +0.70206117
e   0.1115580      Incl.    2.06468     +0.22230269     +0.31662883
P 286              H    8.2           G   0.15           U   3
Residuals in seconds of arc
130805 568  0.0   0.0     130929 568  0.0   0.0     140824 568  0.0   0.0
130805 568  0.1-  0.1+    130929 568  0.1+  0.0     140828 568  0.0   0.0
130831 568  0.2-  0.1+    130929 568  0.0   0.3+    141023 568  0.1+  0.0
130901 568  0.1-  0.0     130929 568  0.1-  0.1-    141027 568  0.0   0.0
130901 568  0.0   0.1+    131005 568  0.1+  0.0     141124 568  0.2+  0.2-
130901 568  0.2-  0.1+    131006 568  0.1-  0.2-    141125 568  0.1-  0.0
130905 568  0.2-  0.1+    131007 568  0.2+  0.1+    150117 568  0.0   0.1-
130905 568  0.2+  0.2+    131009 568  0.1-  0.0     150820 568  0.1-  0.0
130929 568  0.2+  0.2-    131127 568  0.1-  0.1-    151012 568  0.0   0.0
130929 568  0.0   0.1-    131127 568  0.0   0.2-    151012 568  0.1+  0.0
130929 568  0.1+  0.1-    131205 568  0.1-  0.0     151207 568  0.0   0.1+
130929 568  0.2+  0.1-    140723 568  0.3-  0.1-    151231 568  0.0   0.0
130929 568  0.0   0.2+    140727 568  0.1+  0.0     170724 568  0.0   0.1+

Ephemeris:
2013 SB101               a,e,i = 43.45, 0.11, 2                  q = 38.603
Date    TT    R. A. (2000) Decl.     Delta      r     Elong.  Phase     V
2017 09 19    01 06 28.1 +04 47 15  37.9759 38.9139   158.8     0.5    24.2
...
2017 10 04    01 05 18.9 +04 39 54  37.9181 38.9122   173.5     0.2    24.1
...
2017 10 12    01 04 40.4 +04 35 56  37.9145 38.9113   177.1     0.1    24.1
...
2017 10 18    01 04 11.6 +04 33 00  37.9244 38.9106   171.7     0.2    24.1
2017 10 19    01 04 06.9 +04 32 31  37.9271 38.9105   170.7     0.2    24.1
2017 10 20    01 04 02.1 +04 32 02  37.9301 38.9104   169.7     0.3    24.1
...
2017 10 26    01 03 34.0 +04 29 13  37.9545 38.9097   163.7     0.4    24.1
...
2017 11 03    01 02 58.2 +04 25 41  38.0032 38.9088   155.6     0.6    24.2
...
2017 11 18    01 01 58.9 +04 20 03  38.1413 38.9071   140.3     0.9    24.2

A. U. Tomatic                (C) Copyright 2017 MPC           M.P.E.C. 2017-U108



More information about the Iaude mailing list